Regional Weather Roundup
Issued by NWS

Home | Current Version | Previous Version | Graphics & Text | Print | Product List | Glossary On
Versions: 1 2 3 4 5 6 7 8 9 10 11 12 13 14 15 16 17 18 19 20 21 22 23 24 25 26 27 28 29 30 31 32 33 34 35 36 37 38 39 40 41 42 43 44 45 46 47 48 49 50
000
ASUS45 KBOI 240710
RWRID

IDAHO REGIONAL WEATHER ROUNDUP
NATIONAL WEATHER SERVICE BOISE ID
100 AM MDT SUN MAY 24 2015

NOTE: "FAIR" INDICATES FEW OR NO CLOUDS BELOW 12000 FEET
WITH NO SIGNIFICANT WEATHER AND/OR OBSTRUCTIONS TO VISIBILITY

IDZ012-014-240800-
SOUTHWEST IDAHO


CITY           SKY/WX    TMP DP  RH WIND       PRES   REMARKS
BOISE          PTCLDY    59  51  75 S14       29.93R
CALDWELL       PTCLDY    61  43  51 SW7       29.91S
MOUNTAIN HOME  CLOUDY    58  50  74 SE12      29.94R
$$

IDZ016-017-240800-
SOUTHCENTRAL IDAHO


CITY           SKY/WX    TMP DP  RH WIND       PRES   REMARKS
BURLEY         MOCLDY    47  45  93 CALM      29.97S FOG
JEROME         PTCLDY    51  49  92 E8        29.97S
TWIN FALLS     MOCLDY    54  49  83 E8        29.95S
$$

IDZ019>023-240800-
SOUTHEAST IDAHO


CITY           SKY/WX    TMP DP  RH WIND       PRES   REMARKS
IDAHO FALLS    FOG       43  42  97 N6        29.98F VSB 1/4
POCATELLO      PTCLDY    48  48 100 NE6       29.98F
REXBURG        MOCLDY    46  44  93 N3        29.99F
$$

IDZ006-010-011-018-031-032-240800-
CENTRAL IDAHO MOUNTAINS


CITY           SKY/WX    TMP DP  RH WIND       PRES   REMARKS
MCCALL         CLEAR     53  38  56 N10       30.00S
HAILEY         MOCLDY    46  45  93 NW6       30.04R
STANLEY          N/A     39  35  86 CALM      30.07R
SALMON         MOCLDY    52  48  87 CALM      30.03S
CHALLIS        PTCLDY    50  40  68 NW7       30.03S
$$

IDZ002-004-006-007-026-240800-
NORTHERN IDAHO


CITY           SKY/WX    TMP DP  RH WIND       PRES   REMARKS
LEWISTON       LGT RAIN  61  55  81 E7        29.99R
LOWELL           N/A     55  52  89 CALM      30.03R
COEUR D`ALENE  PTCLDY    63  48  59 S6        30.01R
MULLAN PASS    CLEAR     47  34  60 CALM      30.14S
$$



USA.gov is the U.S. government's official web portal to all federal, state and local government web resources and services.